EHI
0 0 0 0 0 0 0 0 0 0 0 0 0 0 0 0 0 0 0 0 0 0 0 0 0 0 0 0 0 0 0 0 0 0 0 0 0 0 0 0 0 0 0
0 0 0 0 0 0 0 0 0 0 0 0 0 0 0 0 0 0 0 0 0 0 0 0 0 0 0 0 0 0 0 0 0 0 0 0 0 0 0 0 0 0 0
0 0 0 0 0 0 0 0 0 0 0 0 0 0 0 0 0 0 0 0 0 0 0 0 0 0 0 0 0 0 0 0 0 0 0 0 0 0 0 0 0 0 0
0 0 0 0 0 0 0 0 0 0 0 0 0 0 0 0 0 0 0 0 0 0 1 1 1 1 0 0 0 0 0 0 0 0 0 0 0 0 0 0 0 0 0
0 0 0 0 0 0 0 0 0 0 0 0 0 0 0 0 0 0 0 0 0 0 1 1 1 2 1 0 0 0 0 0 0 0 0 0 0 0 0 0 0 0 0
0 0 0 0 0 0 0 0 0 0 0 0 0 0 0 0 0 0 0 0 0 0 0 0 1 1 0 0 0 0 0 0 0 0 0 0 0 0 0 0 0 0 0
0 0 0 0 0 0 0 0 0 0 0 0 0 0 0 0 0 0 0 0 0 0 0 0 0 0 0 0 0 0 0 0 0 0 0 0 0 0 0 0 0 0 0
0 0 0 0 0 0 0 0 0 0 0 0 0 0 0 0 0 0 0 0 0 0 0 0 0 0 0 0 0 0 0 0 0 0 0 0 0 0 0 0 0 0 0
0 0 0 0 0 0 0 0 0 0 0 0 0 0 0 0 0 0 0 0 0 0 0 0 0 0 0 0 0 0 0 0 0 0 0 0 0 0 0 0 0 0 0
0 0 0 0 0 0 0 0 0 0 0 0 0 0 0 0 0 0 0 0 0 0 0 0 0 0 0 0 0 0 0 0 0 0 0 0 0 0 0 0 0 0 0
0 0 0 0 0 0 0 0 0 0 0 0 0 0 0 0 0 0 0 0 0 0 0 0 0 0 0 0 0 0 0 0 0 0 0 0 0 0 0 0 0 0 0
0 0 0 0 0 0 0 0 0 0 0 0 0 0 0 0 0 0 0 0 0 0 0 0 0 0 0 0 0 0 0 0 0 0 0 0 0 0 0 0 0 0 0
0 0 0 0 0 0 0 0 0 0 0 0 0 0 0 0 0 0 0 0 0 0 0 0 0 0 0 0 0 0 0 0 0 0 0 0 0 0 0 0 0 0 0
0 0 0 0 0 0 0 0 0 0 0 0 0 0 0 0 0 0 0 0 0 0 0 0 0 0 0 0 0 0 0 0 0 0 0 0 0 0 0 0 0 0 0
0 0 0 0 0 0 0 0 0 0 0 0 0 0 0 0 0 0 0 0 0 0 0 0 0 0 0 0 0 0 0 0 0 0 0 0 0 0 0 0 0 0 0
0 0 0 0 0 0 0 0 0 0 0 0 0 0 0 0 0 0 0 0 0 0 0 0 0 0 0 0 0 0 0 0 0 0 0 0 0 0 0 0 0 0 0
0 0 0 0 0 0 0 0 0 0 0 0 0 0 0 0 0 0 0 0 0 0 0 0 0 0 0 0 0 0 0 0 0 0 0 0 0 0 0 0 0 0 0
0 0 0 0 0 0 0 0 0 0 0 0 0 0 0 0 0 0 0 0 0 0 0 0 0 0 0 0 0 0 0 0 0 0 0 0 0 0 0 0 0 0 0
0 0 0 0 0 0 0 0 0 0 0 0 0 0 0 0 0 0 0 0 0 0 0 0 0 0 0 0 0 0 0 0 0 0 0 0 0 0 0 0 0 0 0
0 0 0 0 0 0 0 0 0 0 0 0 0 0 0 0 0 0 0 0 0 0 0 0 0 0 0 0 0 0 0 0 0 0 0 0 0 0 0 0 0 0 0
0 0 0 0 0 0 0 0 0 0 0 0 0 0 0 0 0 0 0 0 0 0 0 0 0 0 0 0 0 0 0 0 0 0 0 1 1 1 0 0 0 0 0
0 0 0 0 0 0 0 0 0 0 0 0 0 0 0 0 0 0 0 0 0 0 0 0 0 0 0 0 0 0 0 0 0 0 0 1 2 1 0 0 0 0 0
0 0 0 0 0 0 0 0 0 0 0 0 0 0 0 0 0 0 0 0 0 0 0 0 0 0 0 0 0 0 0 0 0 0 0 1 1 1 0 0 0 0 0
0 0 1 1 1 0 0 0 0 0 0 0 0 0 0 0 0 0 0 0 0 0 0 0 0 0 0 0 0 0 0 0 0 0 0 0 0 0 0 0 0 0 0
0 0 1 1 1 0 0 0 0 0 0 0 0 0 0 0 0 0 0 0 0 0 0 0 0 0 0 0 0 0 0 0 0 0 0 0 0 0 0 0 0 0 0
0 0 1 1 0 0 0 0 0 0 0 0 0 0 0 0 0 0 0 0 0 0 0 0 0 0 0 0 0 0 0 0 0 0 0 0 0 0 0 0 0 0 0
Wind_Speed
6 5 5 4 5 4 5 3 4 4 3 2 2 2 2 2 1 1 3 6 4 3 2 3 3 2 2 3 3 4 4 5 6 6 6 6 5 5 4 3 3 3 2
5 5 5 5 5 5 4 4 4 4 3 2 2 3 2 2 2 2 2 5 5 4 3 0 1 1 1 2 3 3 4 4 5 6 6 6 5 5 4 3 3 3 2
7 6 5 6 6 6 6 4 4 3 2 3 3 2 1 2 2 3 3 1 4 6 4 3 2 2 2 3 3 4 4 3 4 4 4 4 4 4 3 3 3 4 3
8 6 5 5 6 6 5 4 4 4 4 4 3 3 2 2 1 2 1 2 2 3 6 6 4 3 3 4 4 4 3 3 2 2 2 2 2 2 2 3 4 4 4
9 7 5 5 7 6 6 5 5 5 5 4 3 3 2 2 1 2 1 2 3 2 4 7 7 7 5 3 2 2 2 2 2 2 2 1 1 1 2 3 4 4 5
9 7 4 5 6 6 5 6 6 5 4 4 5 4 4 3 4 3 1 1 2 3 2 3 5 7 7 5 3 1 1 2 2 2 2 2 2 2 2 3 3 4 4
9 8 5 6 6 6 8 8 6 7 6 6 5 5 6 7 6 4 4 4 4 2 4 4 2 2 5 6 5 4 2 2 2 1 1 1 1 1 1 1 2 2 3
10 8 9 6 7 7 9 9 8 6 6 6 6 6 5 6 6 7 5 5 5 5 4 4 5 3 2 3 7 5 5 4 3 3 2 2 2 2 1 0 1 1 1
9 9 9 8 8 8 8 9 10 10 7 7 7 6 5 4 4 6 8 7 6 4 5 5 5 5 4 3 5 7 4 4 2 2 3 3 4 4 4 2 2 3 3
8 8 8 8 7 6 7 8 9 8 8 7 7 7 7 4 4 4 5 7 7 6 7 5 5 5 5 3 2 4 2 2 2 1 3 4 5 6 6 6 5 5 5
7 8 7 7 7 6 7 7 7 8 7 8 8 7 8 6 9 7 5 5 6 7 7 7 6 5 5 5 4 5 4 1 1 1 1 2 3 4 5 5 4 4 3
5 7 6 6 6 5 6 6 6 8 8 8 8 7 7 7 8 8 7 6 4 5 6 6 6 6 6 6 6 8 6 5 3 2 1 1 2 2 2 2 2 2 2
4 6 6 6 5 5 5 5 6 6 8 8 8 7 7 8 7 7 7 6 4 3 4 5 7 7 7 7 6 11 9 8 6 5 4 2 1 1 1 1 1 2 3
4 6 6 5 5 4 4 4 5 6 6 7 8 8 7 7 7 7 7 6 5 5 5 6 5 7 7 7 6 12 9 12 10 8 7 5 4 2 1 1 2 3 4
3 5 6 5 5 5 5 4 4 5 5 6 6 8 7 6 7 7 7 7 7 6 5 4 4 5 5 6 6 9 10 13 13 11 9 8 6 5 4 3 2 2 4
5 6 6 6 6 5 5 4 3 2 4 5 5 7 7 6 6 6 7 6 7 6 4 3 3 3 3 4 6 8 9 13 14 12 11 10 9 8 7 6 5 5 5
6 6 6 6 6 6 6 4 4 3 4 5 5 6 7 7 6 5 6 6 6 6 7 4 2 4 5 6 5 6 7 8 10 15 13 12 11 10 9 9 8 7 6
5 6 7 6 6 5 5 5 4 4 4 4 4 5 6 5 7 6 5 7 7 7 7 7 4 5 8 7 6 6 6 6 8 13 15 14 13 12 11 11 10 9 8
6 6 6 6 6 6 6 5 5 4 4 4 4 5 5 5 6 5 6 6 6 6 7 6 5 4 4 4 5 6 7 6 7 7 12 14 14 14 13 13 12 11 10
5 6 6 6 6 6 6 6 6 5 5 5 4 4 4 4 5 4 4 5 5 6 6 6 6 4 4 4 4 5 6 6 7 7 8 9 11 15 16 15 14 13 12
4 5 6 6 6 6 6 6 6 6 6 6 6 5 4 2 5 4 4 3 3 4 4 5 5 4 4 4 5 4 5 4 6 6 6 7 8 9 12 15 17 17 15
2 2 4 5 5 5 0 2 7 8 8 7 6 6 5 6 6 6 6 5 5 4 3 3 3 4 5 5 5 4 4 4 4 3 5 6 6 7 7 8 11 16 17
3 2 2 2 2 1 3 4 9 9 9 7 7 6 5 4 5 6 7 9 8 7 5 5 4 3 2 2 4 5 5 5 3 1 1 4 4 5 6 5 5 10 13
6 5 5 5 4 6 8 5 5 11 9 8 8 7 7 7 6 5 5 6 5 5 5 6 4 2 1 1 1 2 2 2 1 1 1 3 2 3 4 5 5 9 11
6 6 6 6 6 7 11 10 7 6 6 7 7 7 7 7 5 1 7 6 4 3 3 3 4 3 2 1 1 1 2 1 1 2 2 2 1 2 3 4 2 4 8
6 5 6 7 7 7 11 12 10 3 4 4 4 5 3 4 2 3 7 6 5 2 2 4 5 5 5 5 5 3 2 2 1 1 3 3 1 1 3 1 1 2 3
Wind_Direction
189 170 184 179 197 178 178 198 213 163 181 136 63 23 66 60 39 43 96 77 28 6 305 239 217 224 227 231 222 209 200 195 184 179 176 172 169 167 165 163 159 142 116
192 180 188 184 192 189 186 198 186 172 184 153 107 58 27 60 73 95 81 124 101 54 33 49 185 197 225 205 199 198 193 197 195 195 193 189 182 177 174 175 174 164 143
192 192 190 185 188 189 191 202 169 186 169 159 158 127 79 27 16 72 75 69 122 106 74 68 88 101 115 125 130 147 157 168 183 196 193 186 178 166 168 188 198 194 185
199 191 189 190 193 191 197 190 205 197 185 195 184 174 173 150 224 54 135 120 96 108 102 77 77 89 107 111 117 123 131 142 156 172 172 166 155 161 188 216 228 215 210
206 197 198 192 189 199 206 207 211 215 207 202 206 204 223 209 189 233 190 113 113 121 115 108 95 74 74 84 105 134 153 164 174 186 188 192 211 229 239 243 236 222 219
220 213 201 209 202 207 213 221 215 227 236 220 224 216 229 234 227 230 240 208 195 138 122 139 149 111 83 63 54 93 160 184 196 211 213 215 229 249 256 249 237 229 233
226 228 224 216 214 218 218 222 222 220 226 225 227 223 221 230 238 205 227 228 202 168 204 175 181 169 134 119 70 54 68 126 147 162 176 194 203 208 236 252 250 250 258
223 228 228 225 222 224 224 223 218 223 221 220 230 236 234 213 218 224 214 229 229 187 221 204 188 183 193 166 97 66 46 55 81 91 84 81 92 105 107 116 277 263 197
227 227 230 228 227 224 224 225 219 221 220 217 229 231 240 246 212 201 213 214 222 217 217 216 214 189 178 190 158 126 60 26 44 72 84 84 84 81 81 86 98 105 109
219 220 226 229 227 226 228 227 221 222 221 215 216 232 245 259 251 220 201 218 215 218 225 207 226 215 194 198 127 95 97 5 4 65 92 87 84 80 80 85 88 95 107
214 213 216 219 227 226 230 229 226 226 224 225 218 214 225 237 247 255 230 199 201 215 221 219 212 219 207 205 199 151 149 223 312 48 77 82 87 88 87 85 85 90 99
207 207 204 211 219 224 228 227 227 226 235 235 231 225 220 222 227 232 236 226 215 208 208 215 222 217 216 215 206 150 180 199 210 210 189 88 92 93 86 85 79 69 48
200 194 196 205 208 218 224 224 227 231 231 237 237 238 239 241 242 237 235 230 226 219 212 215 216 216 214 219 201 172 196 198 203 208 210 205 167 113 79 43 16 2 344
202 185 188 192 191 200 209 215 234 230 237 234 242 245 247 249 246 239 239 231 226 224 224 226 199 213 217 218 204 182 199 193 199 205 210 212 210 208 216 294 341 338 329
191 181 179 182 182 188 205 204 228 227 237 240 243 246 245 247 246 241 239 234 232 228 226 228 222 205 212 223 176 204 221 186 194 202 207 211 214 218 225 234 257 292 306
184 183 189 185 181 182 190 202 220 227 235 236 242 246 244 242 240 235 233 231 232 240 241 225 223 202 184 213 198 232 233 164 191 202 207 211 214 219 225 233 241 255 276
190 190 196 202 188 186 187 186 215 204 229 235 234 242 246 242 237 231 228 226 224 226 239 239 241 249 231 234 195 226 232 212 202 198 206 211 215 219 225 232 238 245 258
203 205 193 203 194 198 200 196 200 214 230 245 246 246 250 246 243 235 227 227 226 225 235 241 229 240 252 256 252 237 230 229 233 187 199 210 215 219 223 229 234 239 246
208 209 206 209 203 207 207 208 208 220 226 237 247 254 255 249 248 241 236 235 230 227 226 234 235 225 235 243 249 247 239 235 239 194 195 211 216 220 223 226 228 232 237
222 222 220 219 216 216 221 219 218 223 228 227 233 244 255 255 262 257 250 250 243 237 229 233 234 219 215 218 233 239 239 225 230 222 212 214 214 216 225 227 228 229 230
244 241 239 234 228 229 232 233 225 227 230 225 223 225 233 315 348 317 305 290 265 250 239 236 236 225 210 196 217 224 239 243 242 230 228 217 214 220 216 223 228 231 229
282 263 254 245 238 238 132 268 262 239 233 228 226 225 200 211 216 233 263 290 304 297 293 259 244 240 231 219 215 211 220 230 238 211 236 242 230 240 241 241 209 209 219
36 18 344 299 269 20 9 262 248 255 242 240 234 224 213 219 228 229 207 220 233 236 266 296 288 282 278 243 220 215 215 224 236 176 254 267 255 260 265 257 208 205 214
47 40 33 30 39 35 12 330 265 247 243 236 235 236 227 224 216 257 250 239 244 226 228 251 289 331 9 24 235 230 219 214 201 161 202 265 271 275 295 286 215 216 225
52 52 46 40 39 33 16 0 319 249 243 236 232 236 244 245 124 215 267 265 256 232 190 249 322 2 51 92 128 163 159 176 208 197 184 231 285 306 296 289 307 231 240
48 54 53 41 34 27 20 10 348 296 267 248 233 227 215 277 99 218 255 263 270 267 208 183 203 205 210 185 198 231 215 220 226 219 175 200 229 252 280 250 296 291 251